sat.trackr.live / text

‹ back to catalog

STARLINK-37333

NORAD 69174 · 2026-111AC

PAYLOAD ACTIVE UNKNOWN

§ Identity

Operator
Country
US
Launch date
2026-05-21
Launch site
AFETR
Launch vehicle
Mass (kg)
RCS (m²)

Purposes: comms

External: N2YO · Heavens-Above · Gunter

§ Orbital elements

Epoch: 2026-09-19T23:48:11.978784Z

Period
93.85 min
Inclination
53.1591°
Eccentricity
0.0001430
Mean motion
15.34405253 rev/d
Perigee alt
461.7 km
Apogee alt
463.7 km
Semi-major
6,840.8 km
B*
4.6552e-4
RAAN
67.8899°
Arg perigee
94.0134°
Mean anomaly
266.1032°
Rev number
1,882

§ Raw data

STARLINK-373331 69174U 26111AC  26262.99180531  .00015387  00000+0  46552-3 0  99902 69174  53.1591  67.8899 0001430  94.0134 266.1032 15.34405253 18820

JSON: /api/v1/satellites/69174 · /tle

For live sub-satellite position, see the globe view (requires WebGL).

§ Visibility from observer

Set your observer location to see the next 7 days of passes ≥ 10°. The values pass through the URL so the page stays shareable.

No JS? Fill the form by hand. The geolocation button needs JavaScript.